Weather observations for the past three days for
Everett Snohomish County
Imperial (Metric)
Date Time (pdt) Wind (mph) Vis. (mi.) Weather Sky Cond. Temperature (ºF) Relative Humidity Wind Chill (°F) Heat Index (°F) Pressure Precipitation (in)
Air Dwpt 6 hour altimeter (in) sea level (mb) 1 hr 3 hr 6 hr
Max. Min.
04 11:53 W 8 10.00 Fair CLR 69.1 50 51% 29.87 1011.2
04 10:53 SW 7 10.00 Fair CLR 68 46.9 68 55 47% 29.87 1011.1
04 09:53 W 6 10.00 Fair CLR 66.9 46.9 49% 29.86 1011.0
04 08:53 W 5 10.00 Fair CLR 64.9 50 59% 29.86 1010.8
04 07:53 S 3 10.00 Fair CLR 62.1 50 65% 29.84 1010.4
04 06:53 Calm 10.00 Fair CLR 57.9 46.9 67% 29.83 1009.9
04 05:53 Calm 10.00 Fair CLR 57.9 46 65% 29.82 1009.7
04 04:53 E 3 10.00 Fair CLR 59 46 64 55.9 62% 29.82 1009.7
04 03:53 E 3 10.00 Fair CLR 59 45 60% 29.82 1009.6
04 02:53 Calm 10.00 Fair CLR 57.9 45 62% 29.82 1009.6
04 01:53 Calm 10.00 Fair CLR 61 46 58% 29.82 1009.5
04 00:53 Calm 10.00 Fair CLR 60.1 45 58% 29.82 1009.7
03 23:53 Calm 10.00 Fair CLR 62.1 43 50% 29.83 1009.8
03 22:53 N 3 10.00 Fair CLR 64 43 75 63 46% 29.82 1009.7
03 21:53 N 5 10.00 Fair CLR 64 45 50% 29.83 1010.0
03 20:53 N 3 10.00 Fair CLR 64.9 45 49% 29.83 1009.8
03 19:53 N 6 10.00 Fair CLR 70 45 41% 29.83 1009.8
03 18:53 N 8 10.00 Fair CLR 73 46.9 40% 29.83 1010.0
03 17:53 N 8 10.00 Fair CLR 73 48.9 43% 29.85 1010.4
03 16:53 N 9 10.00 Fair CLR 75 48.9 75 64.9 40% 77 29.86 1010.8
03 15:53 Vrbl 7 10.00 Fair CLR 75 50 42% 78 29.88 1011.6
03 14:53 N 9 10.00 Fair CLR 72 50 46% 29.9 1012.3
03 13:53 N 6 10.00 Fair CLR 72 50 46% 29.91 1012.7
03 12:53 N 6 10.00 Fair CLR 70 51.1 51% 29.93 1013.4
03 11:53 N 7 10.00 Fair CLR 66.9 50 55% 29.95 1013.9
03 10:53 N 9 10.00 Fair CLR 64.9 48.9 64.9 55 56% 29.96 1014.4
03 09:53 N 10 10.00 Fair CLR 62.1 48.9 62% 29.97 1014.7
03 08:53 N 10 10.00 Fair CLR 59 50 72% 29.97 1014.8
03 07:53 N 6 10.00 Fair CLR 57 50 78% 29.97 1014.9
03 06:53 N 7 10.00 Fair CLR 55.9 48 75% 29.96 1014.6
03 05:53 N 5 10.00 Fair CLR 55 46 72% 29.96 1014.5
03 04:53 N 3 10.00 Fair CLR 57.9 45 62.1 57.9 62% 29.97 1014.6
03 03:53 N 5 10.00 Fair CLR 59 44.1 58% 29.97 1014.7
03 02:53 Calm 10.00 Fair CLR 60.1 46 60% 29.97 1014.9
03 01:53 N 6 10.00 Fair CLR 61 43 52% 29.98 1014.9
03 00:53 N 7 10.00 Fair CLR 62.1 42.1 48% 29.97 1014.8
02 23:53 N 7 10.00 Fair CLR 61 43 52% 29.97 1014.6
02 22:53 N 6 10.00 Fair CLR 62.1 43 69.1 62.1 50% 29.97 1014.6
02 21:53 N 9 10.00 Fair CLR 63 43 48% 29.96 1014.5
02 20:53 N 7 10.00 Fair CLR 63 44.1 50% 29.95 1014.0
02 19:53 N 9 10.00 Fair CLR 64.9 45 49% 29.93 1013.5
02 18:53 N 13 G 22 10.00 Fair CLR 66.9 46.9 49% 29.93 1013.5
02 17:53 N 10 G 21 10.00 Fair CLR 69.1 48 47% 29.94 1013.8
02 16:53 N 8 10.00 Fair CLR 69.1 50 69.1 57.9 51% 29.95 1014.2
02 15:53 NW 9 10.00 Fair CLR 68 51.1 55% 29.97 1014.9
02 14:53 NW 10 10.00 Fair CLR 66 50 56% 30 1015.7
02 13:53 N 10 10.00 Fair CLR 64.9 50 59% 30.01 1016.2
02 12:53 NW 9 G 20 10.00 Fair CLR 62.1 51.1 67% 30.03 1016.8
02 11:53 NW 10 G 20 10.00 Fair CLR 60.1 51.1 72% 30.03 1016.9
02 10:53 N 9 G 18 10.00 Partly Cloudy SCT007 57.9 51.1 57.9 50 78% 30.04 1017.4
02 09:53 N 10 10.00 Mostly Cloudy BKN007 55 50 83% 30.05 1017.5
02 08:53 N 10 10.00 Fair CLR 54 48.9 83% 30.04 1017.2
02 07:53 NW 5 10.00 Mostly Cloudy BKN110 52 48.9 89% 30.04 1017.4
02 06:53 N 3 10.00 Fog/Mist BKN110 50 48.9 96% 30.04 1017.1
02 05:53 N 5 8.00 A Few Clouds FEW110 50 48 93% 49 30.04 1017.1
02 04:53 Calm 10.00 Partly Cloudy SCT110 51.1 48 54 48.9 89% 30.05 1017.4
02 03:53 N 3 10.00 Fair CLR 50 46.9 89% 30.02 1016.7
02 02:53 Calm 10.00 Fair CLR 50 48 93% 30.03 1017.0
02 01:53 N 5 10.00 Partly Cloudy SCT110 51.1 48 89% 30.03 1016.8
02 00:53 N 7 10.00 Mostly Cloudy BKN110 52 46.9 83% 30.03 1016.8
01 23:53 N 8 10.00 A Few Clouds FEW110 52 46.9 83% 30.02 1016.5
01 22:53 N 8 10.00 Fair CLR 54 45 64.9 54 72% 30.02 1016.4
01 21:53 N 6 10.00 Fair CLR 55 43 64% 30.01 1016.2
01 20:53 N 10 10.00 Mostly Cloudy FEW043 SCT085 BKN110 55 44.1 67% 30 1015.7
01 19:53 N 7 10.00 Light Rain SCT070 BKN095 OVC120 55.9 48 75% 29.98 1015.3
01 18:53 N 7 10.00 Mostly Cloudy BKN110 59 46.9 64% 29.97 1014.9
01 17:53 N 8 G 16 10.00 Fair CLR 64 48.9 58% 29.98 1015.1
01 16:53 N 9 10.00 Mostly Cloudy BKN120 64.9 50 64.9 59 59% 29.97 1014.9
01 15:53 N 10 10.00 Mostly Cloudy BKN120 64.9 48 54% 29.99 1015.3
01 14:53 N 9 10.00 Partly Cloudy SCT110 64.9 48.9 56% 30 1015.7
01 13:53 N 8 10.00 Fair CLR 63 48.9 60% 30.01 1016.1
01 12:53 N 9 10.00 Fair CLR 60.1 48.9 67% 30.01 1016.3
Date Time (pdt) Wind (mph) Vis. (mi.) Weather Sky Cond. Air Dwpt Max. Min. Relative Humidity Wind Chill (°F) Heat Index (°F) altimeter (in) sea level (mb) 1 hr 3 hr 6 hr
6 hour
Temperature (ºF) Pressure Precipitation (in)